User: anonymous   Login
Location: Mt. Chestnut Observatory
(40.9038°N, 79.9956°W)
Time: 04:15:56
(UTC-05:00)
Language:

Cosmos 2034 Rocket - Orbit

View from above orbital plane
View from above orbital plane
View from above satellite
View from above satellite

Ground track
Ground track

The orbit data is extracted from the following two-line orbital elements,

1 20150U 89059B   14354.29828468  .00000059  00000-0  45612-4 0   912
2 20150 082.9393 049.0934 0027533 304.0453 124.5376 13.75594010275290
Epoch (UTC): 20 December 2014 07:09:31
Eccentricity: 0.0027533
inclination: 82.9393°
perigee height: 959 km
apogee height: 1000 km
right ascension of ascending node: 49.0934°
argument of perigee: 304.0453°
revolutions per day: 13.75594010
mean anomaly at epoch: 124.5376°
orbit number at epoch: 27529

The dashed part of the orbit path shows where the satellite is in the earth's shadow,  

DLR